Location: Vinland
(47.7731°N, 122.6974°W)
Time: 10:24:15
(UTC+00:00)

Explorer 7 - All Passes

Search period start: 30 March 2023 00:00
Search period end: 09 April 2023 00:00
Orbit: 478 x 657 km, 50.3° (Epoch: 29 March)

Date Brightness Start Highest point End Pass type
(mag) Time Alt. Az. Time Alt. Az. Time Alt. Az.
30 Mar - 01:26:15 10° W 01:30:45 66° N 01:34:58 10° ENE daylight
30 Mar - 03:06:54 10° WNW 03:11:16 70° NNE 03:15:21 10° E visible
30 Mar - 04:47:22 10° WNW 04:51:23 44° SSW 04:55:10 10° SE visible
30 Mar - 22:07:04 10° S 22:10:42 22° SE 22:14:13 10° E daylight
30 Mar - 23:45:54 10° WSW 23:50:31 74° SSE 23:54:55 10° ENE daylight
31 Mar - 01:26:27 10° W 01:30:56 62° N 01:35:09 10° ENE daylight
31 Mar - 03:07:03 10° WNW 03:11:25 81° NNE 03:15:32 10° ESE visible
31 Mar - 04:47:37 10° W 04:51:24 33° SW 04:54:58 10° SSE visible
31 Mar - 22:06:32 10° SSW 22:10:38 30° SE 22:14:36 10° E daylight
31 Mar - 23:45:58 10° WSW 23:50:37 90° SSW 23:55:02 10° ENE daylight
01 Apr - 01:26:38 10° W 01:31:06 61° N 01:35:19 10° E daylight
01 Apr - 03:07:10 10° WNW 03:11:33 85° SSW 03:15:38 10° ESE visible
01 Apr - 04:47:56 10° W 04:51:20 24° SW 04:54:33 10° SSE visible
01 Apr - 22:06:12 10° SW 22:10:35 40° SSE 22:14:51 10° ENE daylight
01 Apr - 23:46:05 10° WSW 23:50:44 78° NNW 23:55:09 10° ENE daylight
02 Apr - 01:26:47 10° WNW 01:31:16 63° N 01:35:29 10° E daylight
02 Apr - 03:07:16 10° WNW 03:11:36 68° SSW 03:15:41 10° ESE visible
02 Apr - 04:48:26 10° W 04:51:11 17° SW 04:53:52 10° S visible
02 Apr - 20:28:30 10° SSE 20:31:00 14° SE 20:33:28 10° E daylight
02 Apr - 22:05:59 10° SW 22:10:35 53° SSE 22:15:00 10° ENE daylight
02 Apr - 23:46:13 10° W 23:50:51 69° N 23:55:15 10° ENE daylight
03 Apr - 01:26:54 10° WNW 01:31:24 68° N 01:35:38 10° E daylight
03 Apr - 03:07:22 10° WNW 03:11:37 52° SSW 03:15:37 10° SE visible
03 Apr - 04:49:25 10° WSW 04:51:00 12° SW 04:52:34 10° SSW visible
03 Apr - 20:27:23 10° S 20:30:49 20° SE 20:34:12 10° E daylight
03 Apr - 22:05:53 10° WSW 22:10:35 68° SSE 22:15:06 10° ENE daylight
03 Apr - 23:46:21 10° W 23:50:58 64° N 23:55:21 10° ENE daylight
04 Apr - 01:26:59 10° WNW 01:31:30 76° NNE 01:35:45 10° E daylight
04 Apr - 03:07:30 10° WNW 03:11:35 39° SW 03:15:24 10° SE visible
04 Apr - 20:26:41 10° SSW 20:30:41 27° SE 20:34:35 10° E daylight
04 Apr - 22:05:51 10° WSW 22:10:36 83° SSE 22:15:09 10° ENE daylight
04 Apr - 23:46:28 10° W 23:51:04 62° N 23:55:27 10° E daylight
05 Apr - 01:27:02 10° WNW 01:31:34 89° N 01:35:49 10° ESE daylight
05 Apr - 03:07:42 10° W 03:11:28 29° SW 03:15:02 10° SSE visible
05 Apr - 20:26:12 10° SSW 20:30:32 36° SE 20:34:48 10° ENE daylight
05 Apr - 22:05:53 10° WSW 22:10:38 83° NNW 22:15:11 10° ENE daylight
05 Apr - 23:46:34 10° W 23:51:10 63° N 23:55:32 10° E daylight
06 Apr - 01:27:04 10° WNW 01:31:35 76° SSW 01:35:49 10° ESE daylight
06 Apr - 03:08:00 10° W 03:11:17 21° SW 03:14:25 10° S daylight
06 Apr - 18:49:02 10° SSE 18:50:57 12° SE 18:52:52 10° ESE daylight
06 Apr - 20:25:52 10° SW 20:30:26 48° SSE 20:34:55 10° ENE daylight
06 Apr - 22:05:56 10° W 22:10:40 73° NNW 22:15:13 10° ENE daylight
06 Apr - 23:46:37 10° WNW 23:51:14 66° N 23:55:37 10° E daylight
07 Apr - 01:27:05 10° WNW 01:31:33 60° SSW 01:35:44 10° SE daylight
07 Apr - 03:08:34 10° W 03:11:02 15° SW 03:13:27 10° SSW daylight
07 Apr - 18:47:33 10° S 18:50:41 18° SE 18:53:48 10° E daylight
07 Apr - 20:25:39 10° SW 20:30:21 61° SSE 20:34:57 10° ENE daylight
07 Apr - 22:05:59 10° W 22:10:42 67° N 22:15:14 10° ENE daylight
07 Apr - 23:46:39 10° WNW 23:51:17 73° NNE 23:55:41 10° E daylight
08 Apr - 01:27:08 10° WNW 01:31:27 45° SSW 01:35:31 10° SE daylight
08 Apr - 03:10:16 10° WSW 03:10:44 10° SW 03:11:12 10° SW daylight
08 Apr - 18:46:38 10° SSW 18:50:26 24° SE 18:54:14 10° E daylight
08 Apr - 20:25:31 10° WSW 20:30:17 77° SSE 20:34:57 10° ENE daylight
08 Apr - 22:06:02 10° W 22:10:44 63° N 22:15:15 10° ENE daylight
08 Apr - 23:46:37 10° WNW 23:51:17 83° NNE 23:55:42 10° ESE daylight
